Terminal Aerodrome Forecast
Issued by NWS

Home | Current Version | Previous Version | Text Only | Print | Product List | Glossary On
Versions: 1 2 3 4 5 6 7 8 9 10 11 12 13 14 15 16 17 18 19 20 21 22 23 24 25 26 27 28 29 30 31 32 33 34 35 36 37 38 39
000
FTAK31 PAFA 060120 AAA
TAFAGA
TAF AMD
PAGA 060120Z 0601/0624 24003KT 1 1/2SM -SN BR BKN022 BKN028 OVC035
     FM060300 21005KT 5SM -SHSN SCT020 OVC035
     FM060500 21006KT P6SM -SHSN SCT025 OVC040
     FM061200 12005KT 5SM -SN SCT015 OVC025
     FM062000 11010KT P6SM -SHRASN SCT015 OVC025=

USA.gov is the U.S. government's official web portal to all federal, state and local government web resources and services.